Location: Heilbronn
(49.1548°N, 9.2780°E)
Time: 06:16:39
(UTC+01:00)

Tiangong 2 - Visible Passes

Search period start: 20 January 2018 00:00
Search period end: 30 January 2018 00:00
Orbit: 384 x 390 km, 42.8° (Epoch: 18 January)

Date Brightness Start Highest point End Pass type
(mag) Time Alt. Az. Time Alt. Az. Time Alt. Az.
20 Jan 3.7 06:15:46 11° SSW 06:17:39 16° SSE 06:19:46 10° ESE visible
21 Jan 4.3 05:20:02 11° SE 05:20:02 11° SE 05:20:33 10° SE visible
21 Jan 3.1 06:52:40 10° SW 06:55:20 24° S 06:58:00 10° ESE visible
22 Jan 3.1 05:56:28 21° S 05:56:47 21° SSE 05:59:17 10° ESE visible
22 Jan 3.0 07:30:22 10° WSW 07:33:04 25° S 07:35:46 10° SE visible
23 Jan 2.8 06:32:48 17° SW 06:34:29 26° S 06:37:14 10° ESE visible
24 Jan 3.3 05:36:49 21° SE 05:36:49 21° SE 05:38:35 10° ESE visible
24 Jan 3.0 07:09:39 10° WSW 07:12:12 22° S 07:14:46 10° SE visible
25 Jan 2.7 06:13:04 23° SSW 06:13:38 25° S 06:16:19 10° SE visible
26 Jan 4.0 05:17:02 15° SE 05:17:02 15° SE 05:17:46 10° ESE visible
26 Jan 3.2 06:49:18 11° WSW 06:51:18 18° SSW 06:53:33 10° SSE visible
27 Jan 3.1 05:53:16 21° S 05:53:16 21° S 05:55:16 10° SE visible
28 Jan 3.4 06:29:31 12° SW 06:30:18 13° SSW 06:31:56 10° S visible
29 Jan 3.9 05:33:32 12° SSE 05:33:32 12° SSE 05:33:59 10° SSE visible
